Location: Hopewell Observatory
(38.8698°N, 77.6988°W)
Time: 12:23:15
(UTC-04:00)

Helios 1A - Pass Details

Date: 26 May 2018
Orbit: 585 x 604 km, 98.2° (Epoch: 11 June)

Event Time Altitude Azimuth Distance (km) Brightness Sun altitude
Exits shadow 22:51:27 55° 207° (SSW) 707 3.1 -21.9°
Maximum altitude 22:52:09 66° 258° (WSW) 639 3.1 -22.0°
Drops below altitude 10° 22:56:16 10° 341° (NNW) 1,914 6.6 -22.4°
Sets 22:58:27 0° 345° (NNW) 2,820 7.7 -22.6°
